THORAD AGENA D DEB, 4920

Orbit data source: Space-Track

THORAD AGENA D DEB, 4920 is space debris in SSO originally from a launch on Wed, 08 Apr 1970 UTC launched from the Air Force Western Test Range (AFWTR). Debris objects in space refer to the collection of defunct objects orbiting the Earth. Examples of debris include non-operational satellites, rocket bodies, and fragments generated from explosions, collisions, or faulty payload assembly.

Loading next visibility...
Identifier
4920, 1970-025FS
Orbit
SSO
Country
Flag of USUS
Related business
Manufacturer
Unknown
Mission
Spacecraft
Bus & Motor
Unknown
Mass
Unknown
Launch date (UTC)
1970-04-08 (56 years ago)
Launch vehicle
Unknown
Launch site
Air Force Western Test Range (AFWTR)
Object type
Payload
Rocket body
Debris
Shape & HBR
Unknown shape, 0.2 m
Radar Cross Section
Medium (>0.1 m² and <1 m²)

Expand to show TLE details & history
Last TLE update: 11 hours ago

TLE from 11 hours ago
0 THORAD AGENA D DEB
1 04920U 70025FS  26256.17293140  .00000298  00000-0  51553-3 0  9998
2 04920  99.4257 145.8721 0089438 146.0889   7.6088 13.50579096765449
Epoch: 2026-09-13T04:09Z
TLE epoch observation values (Epoch: 2026-09-13T04:09:01.272Z)
Latitude
25.81877°
Longitude
-83.97162°
Altitude
1,007.128 km
Speed
7.383 km/s
True Right ascension
22h 01m 49s
True Declination
25° 41' 19"
Sunlit
Object was in full shadow at epoch
Visualization orbit readout
Latitude
Unknown
Longitude
Unknown
Altitude
Unknown
Speed
Unknown
Apparent Right ascension
Unknown
Apparent Declination
Unknown
Sunlit
N/A
Visualization observer readout
Local Sidereal Time
07:43:49
Azimuth
Unknown
Elevation
Unknown
Doppler factor
Unknown
Orbital elements
Apogee altitude
1,134.007 km
Perigee altitude
1,000.824 km
Semi-major axis
7,445.552 km
Eccentricity
0.00894
Inclination
99.4257°
RAAN
145.8721°
Arg. of periapsis
146.0889°
True anomaly
7.74602°
Mean anomaly
7.6088°
Eccentric anomaly
7.67726°
Mean motion
3.3783 °/min
Orbital period
106.56 mins
BSTAR
0.00051553
Loading maneuver chart data...
Computing Atmospheric mass density...

Documentation

Showing up to 5 results
|